Time,TemperatureF,DewpointF,PressureIn,WindDirection,WindDirectionDegrees,WindSpeedMPH,WindSpeedGustMPH,Humidity,HourlyPrecipIn,Conditions,Clouds,dailyrainin,SoftwareType,DateUTC
2013-09-03 00:12:00,66.0,47.0,-100.00,East,87,5.0,18.0,50,-99.99,,,-99.99,,2013-09-03 06:12:00,
2013-09-03 00:43:00,64.0,49.0,-100.00,ESE,105,9.0,10.0,58,-99.99,,,-99.99,,2013-09-03 06:43:00,
2013-09-03 01:12:00,62.0,50.0,-100.00,North,349,5.0,5.0,66,-99.99,,,-99.99,,2013-09-03 07:12:00,
2013-09-03 01:42:00,63.0,49.0,-100.00,ENE,59,3.0,4.0,58,-99.99,,,-99.99,,2013-09-03 07:42:00,
2013-09-03 02:11:00,61.0,49.0,-100.00,North,10,2.0,4.0,62,-99.99,,,-99.99,,2013-09-03 08:11:00,
2013-09-03 02:42:00,59.0,48.0,-100.00,SSE,163,3.0,4.0,66,-99.99,,,-99.99,,2013-09-03 08:42:00,
2013-09-03 02:52:00,58.0,48.0,-100.00,North,8,4.0,4.0,67,-99.99,,,-99.99,,2013-09-03 08:52:00,
2013-09-03 03:11:00,58.0,48.0,-100.00,NNE,19,3.0,4.0,68,-99.99,,,-99.99,,2013-09-03 09:11:00,
2013-09-03 03:21:00,57.0,47.0,-100.00,North,10,2.0,3.0,70,-99.99,,,-99.99,,2013-09-03 09:21:00,
2013-09-03 03:43:00,58.0,48.0,-100.00,East,90,3.0,4.0,69,-99.99,,,-99.99,,2013-09-03 09:43:00,
2013-09-03 04:12:00,56.0,47.0,-100.00,NNE,28,6.0,6.0,72,-99.99,,,-99.99,,2013-09-03 10:12:00,
2013-09-03 04:42:00,60.0,48.0,-100.00,NE,39,8.0,8.0,64,-99.99,,,-99.99,,2013-09-03 10:42:00,
2013-09-03 05:12:00,60.0,47.0,-100.00,ENE,60,8.0,9.0,63,-99.99,,,-99.99,,2013-09-03 11:12:00,
2013-09-03 05:22:00,60.0,47.0,-100.00,NE,49,7.0,8.0,62,-99.99,,,-99.99,,2013-09-03 11:22:00,
2013-09-03 05:42:00,56.0,48.0,-100.00,NNE,17,3.0,4.0,74,-99.99,,,-99.99,,2013-09-03 11:42:00,
2013-09-03 06:12:00,53.0,47.0,-100.00,ENE,78,4.0,6.0,79,-99.99,,,-99.99,,2013-09-03 12:12:00,
2013-09-03 06:21:00,53.0,47.0,-100.00,ENE,78,4.0,6.0,79,-99.99,,,-99.99,,2013-09-03 12:21:00,
2013-09-03 06:42:00,58.0,46.0,-100.00,NE,54,11.0,11.0,66,-99.99,,,-99.99,,2013-09-03 12:42:00,
2013-09-03 06:52:00,58.0,47.0,-100.00,NE,42,11.0,11.0,67,-99.99,,,-99.99,,2013-09-03 12:52:00,
2013-09-03 07:11:00,56.0,46.0,-100.00,NNE,14,3.0,5.0,70,-99.99,,,-99.99,,2013-09-03 13:11:00,
2013-09-03 07:21:00,56.0,46.0,-100.00,East,88,9.0,9.0,68,-99.99,,,-99.99,,2013-09-03 13:21:00,
2013-09-03 07:42:00,56.0,46.0,-100.00,East,89,8.0,9.0,69,-99.99,,,-99.99,,2013-09-03 13:42:00,
2013-09-03 08:11:00,56.0,46.0,-100.00,East,81,6.0,6.0,68,-99.99,,,-99.99,,2013-09-03 14:11:00,
2013-09-03 08:42:00,59.0,49.0,-100.00,NNE,21,3.0,3.0,68,-99.99,,,-99.99,,2013-09-03 14:42:00,
2013-09-03 09:22:00,64.0,46.0,-100.00,ESE,114,2.0,3.0,52,-99.99,,,-99.99,,2013-09-03 15:22:00,
2013-09-03 10:14:00,65.0,50.0,-100.00,West,259,4.0,6.0,58,-99.99,,,-99.99,,2013-09-03 16:14:00,
2013-09-03 10:24:00,66.0,49.0,-100.00,SSW,202,4.0,5.0,54,-99.99,,,-99.99,,2013-09-03 16:24:00,
2013-09-03 10:43:00,66.0,48.0,-100.00,South,189,4.0,5.0,51,-99.99,,,-99.99,,2013-09-03 16:43:00,
2013-09-03 11:12:00,70.0,48.0,-100.00,SSW,196,5.0,7.0,44,-99.99,,,-99.99,,2013-09-03 17:12:00,
2013-09-03 11:43:00,69.0,49.0,-100.00,SW,223,7.0,7.0,49,-99.99,,,-99.99,,2013-09-03 17:43:00,
2013-09-03 12:22:00,72.0,49.0,-100.00,South,189,6.0,8.0,43,-99.99,,,-99.99,,2013-09-03 18:22:00,
2013-09-03 12:52:00,75.0,46.0,-100.00,SW,223,11.0,15.0,36,-99.99,,,-99.99,,2013-09-03 18:52:00,
2013-09-03 13:11:00,77.0,44.0,-100.00,SW,218,11.0,20.0,30,-99.99,,,-99.99,,2013-09-03 19:11:00,
2013-09-03 13:22:00,77.0,44.0,-100.00,SW,218,11.0,20.0,30,-99.99,,,-99.99,,2013-09-03 19:22:00,
2013-09-03 13:42:00,79.0,44.0,-100.00,SW,215,14.0,18.0,29,-99.99,,,-99.99,,2013-09-03 19:42:00,
2013-09-03 14:11:00,79.0,44.0,-100.00,SW,221,15.0,18.0,28,-99.99,,,-99.99,,2013-09-03 20:11:00,
2013-09-03 15:22:00,82.0,42.0,-100.00,SSW,209,18.0,22.0,24,-99.99,,,-99.99,,2013-09-03 21:22:00,
2013-09-03 15:44:00,83.0,42.0,-100.00,SSW,211,13.0,27.0,23,-99.99,,,-99.99,,2013-09-03 21:44:00,
2013-09-03 16:13:00,80.0,41.0,-100.00,SSW,211,18.0,24.0,25,-99.99,,,-99.99,,2013-09-03 22:13:00,
2013-09-03 16:42:00,79.0,42.0,-100.00,SW,224,14.0,23.0,26,-99.99,,,-99.99,,2013-09-03 22:42:00,
2013-09-03 17:12:00,77.0,45.0,-100.00,SSE,159,15.0,22.0,31,-99.99,,,-99.99,,2013-09-03 23:12:00,
2013-09-03 17:22:00,77.0,45.0,-100.00,SSE,163,19.0,23.0,32,-99.99,,,-99.99,,2013-09-03 23:22:00,
2013-09-03 17:42:00,77.0,47.0,-100.00,SSW,200,17.0,20.0,34,-99.99,,,-99.99,,2013-09-03 23:42:00,
2013-09-03 18:11:00,76.0,47.0,-100.00,SSW,194,11.0,15.0,35,-99.99,,,-99.99,,2013-09-04 00:11:00,
2013-09-03 18:22:00,76.0,47.0,-100.00,South,190,11.0,15.0,37,-99.99,,,-99.99,,2013-09-04 00:22:00,
2013-09-03 18:42:00,76.0,49.0,-100.00,SSW,203,6.0,15.0,39,-99.99,,,-99.99,,2013-09-04 00:42:00,
2013-09-03 18:52:00,76.0,47.0,-100.00,SSW,208,14.0,16.0,37,-99.99,,,-99.99,,2013-09-04 00:52:00,
2013-09-03 19:11:00,76.0,46.0,-100.00,SSW,198,15.0,20.0,35,-99.99,,,-99.99,,2013-09-04 01:11:00,
2013-09-03 19:21:00,75.0,47.0,-100.00,SSW,203,13.0,15.0,37,-99.99,,,-99.99,,2013-09-04 01:21:00,
2013-09-03 19:42:00,73.0,50.0,-100.00,SSW,198,15.0,21.0,43,-99.99,,,-99.99,,2013-09-04 01:42:00,
2013-09-03 20:11:00,71.0,51.0,-100.00,SSW,195,9.0,14.0,49,-99.99,,,-99.99,,2013-09-04 02:11:00,
2013-09-03 20:22:00,70.0,51.0,-100.00,SSW,206,7.0,11.0,51,-99.99,,,-99.99,,2013-09-04 02:22:00,
2013-09-03 20:42:00,69.0,52.0,-100.00,SW,223,7.0,8.0,54,-99.99,,,-99.99,,2013-09-04 02:42:00,
2013-09-03 21:22:00,64.0,50.0,-100.00,NNE,19,0.0,2.0,61,-99.99,,,-99.99,,2013-09-04 03:22:00,
2013-09-03 21:44:00,61.0,50.0,-100.00,NE,56,2.0,3.0,68,-99.99,,,-99.99,,2013-09-04 03:44:00,
2013-09-03 22:24:00,61.0,50.0,-100.00,North,350,3.0,5.0,67,-99.99,,,-99.99,,2013-09-04 04:24:00,
2013-09-03 22:44:00,61.0,51.0,-100.00,NNE,16,4.0,5.0,68,-99.99,,,-99.99,,2013-09-04 04:44:00,
2013-09-03 23:43:00,61.0,50.0,-100.00,NE,46,2.0,5.0,68,-99.99,,,-99.99,,2013-09-04 05:43:00,